Date String (YYYY-MM-DD hh:mm:ss) UTC,Instrument flags,Ambient pressure (hPa),Sample flow (lpm),Bypass flow (lpm),Sample temperature (°C),Ambient temperature (°C),ASC tube jacket temperature (°C),LED temperature (°C),Box temperature (°C),Sample RH (%),Span deviation,Mass concentration (μg/m³),Mass concentration (μg/m³),Mass concentration (μg/m³)
DateTimeUTC,F1_M11,P_M11,Q1_M11,Q2_M11,T1_M11,T2_M11,T3_M11,T4_M11,T5_M11,U1_M11,ZSPAN_M11,X0_M11,X2_M11,X1_M11
2023-02-21 16:00:00,,0805.3,5.02,0.00,22.2,22.2,00.0,30.8,24.2,12.9,0000.0,0026.69,0003.81,0000.85
2023-02-21 16:01:00,,0805.5,5.00,0.00,22.2,21.8,00.0,30.9,24.1,12.8,0000.0,0026.34,0003.66,0000.82
2023-02-21 16:02:00,,0805.4,4.98,0.00,22.2,21.5,00.0,30.9,24.0,12.7,0000.0,0023.04,0003.15,0000.74
2023-02-21 16:03:00,,0805.2,5.01,0.00,22.2,21.2,00.0,30.9,23.9,12.9,0000.0,0020.93,0002.61,0000.68
2023-02-21 16:04:00,,0805.2,5.01,0.00,22.2,21.0,00.0,30.9,23.9,12.8,0000.0,0022.19,0002.75,0000.68
2023-02-21 16:05:00,,0805.2,4.99,0.00,22.1,20.8,00.0,30.9,23.8,12.6,0000.0,0023.12,0003.09,0000.70
2023-02-21 16:06:00,,0805.1,5.01,0.00,22.1,20.7,00.0,30.9,23.8,12.7,0000.0,0021.87,0003.01,0000.67
2023-02-21 16:07:00,,0805.1,5.03,0.00,22.1,20.6,00.0,30.9,23.8,12.7,0000.0,0022.55,0003.04,0000.64
2023-02-21 16:08:00,,0804.9,4.96,0.00,22.1,20.5,00.0,30.9,23.7,12.8,0000.0,0022.00,0003.07,0000.63
2023-02-21 16:09:00,,0805.0,5.03,0.00,22.1,20.4,00.0,30.9,23.7,12.8,0000.0,0023.08,0003.40,0000.67
2023-02-21 16:10:00,,0804.9,4.99,0.00,22.0,20.3,00.0,30.9,23.6,12.8,0000.0,0018.03,0003.59,0000.70
2023-02-21 16:11:00,,0805.1,4.99,0.00,22.0,20.2,00.0,30.9,23.6,12.7,0000.0,0019.44,0003.53,0000.69
2023-02-21 16:12:00,,0805.6,5.01,0.00,22.0,20.2,00.0,30.9,23.6,12.6,0000.0,0019.19,0003.39,0000.66
2023-02-21 16:13:00,,0805.3,5.02,0.00,21.9,20.2,00.0,30.9,23.5,12.8,0000.0,0018.54,0003.36,0000.66
2023-02-21 16:14:00,,0805.3,4.98,0.00,21.9,20.1,00.0,30.8,23.5,12.8,0000.0,0019.22,0003.35,0000.66
2023-02-21 16:15:00,,0805.4,4.99,0.00,21.9,20.1,00.0,30.8,23.5,12.7,0000.0,0018.30,0003.27,0000.65
2023-02-21 16:16:00,,0805.3,5.00,0.00,21.9,20.1,00.0,30.8,23.5,12.9,0000.0,0017.06,0003.04,0000.62
2023-02-21 16:17:00,,0805.3,5.01,0.00,21.8,20.1,00.0,30.8,23.5,13.1,0000.0,0015.76,0002.87,0000.60
2023-02-21 16:18:00,,0805.1,5.02,0.00,21.8,20.1,00.0,30.8,23.5,13.0,0000.0,0014.45,0002.66,0000.58
2023-02-21 16:19:00,,0805.2,5.01,0.00,21.8,20.0,00.0,30.8,23.4,13.0,0000.0,0014.61,0002.67,0000.58
2023-02-21 16:20:00,,0805.2,5.00,0.00,21.8,20.0,00.0,30.7,23.4,12.8,0000.0,0013.55,0002.22,0000.55
2023-02-21 16:21:00,,0805.5,5.01,0.00,21.8,20.0,00.0,30.7,23.4,12.8,0000.0,0011.23,0001.55,0000.48
2023-02-21 16:22:00,,0805.6,5.00,0.00,21.8,20.3,00.0,30.7,23.4,13.0,0000.0,0009.34,0001.39,0000.47
2023-02-21 16:23:00,,0805.6,5.01,0.00,21.9,21.7,00.0,30.6,23.8,13.2,0000.0,0007.38,0001.32,0000.45
2023-02-21 16:24:00,,0805.7,4.98,0.00,22.0,22.8,00.0,30.7,24.1,13.2,0000.0,0007.38,0001.31,0000.46
2023-02-21 16:25:00,,0805.7,4.97,0.00,22.1,22.4,00.0,30.7,24.1,13.0,0000.0,0006.54,0001.35,0000.46
2023-02-21 16:26:00,,0805.7,5.01,0.00,22.1,22.0,00.0,30.8,24.0,13.1,0000.0,0004.38,0001.21,0000.45
2023-02-21 16:27:00,,0805.5,5.00,0.00,22.1,21.6,00.0,30.8,24.0,13.0,0000.0,0003.68,0001.06,0000.42
2023-02-21 16:28:00,,0805.3,5.00,0.00,22.1,21.4,00.0,30.9,23.9,12.4,0000.0,0003.74,0001.08,0000.42
2023-02-21 16:29:00,,0805.2,5.02,0.00,22.1,21.2,00.0,30.9,23.9,12.9,0000.0,0003.39,0001.05,0000.43
2023-02-21 16:30:00,,0804.8,5.01,0.00,22.1,21.1,00.0,30.9,23.9,13.0,0000.0,0003.09,0001.03,0000.43
2023-02-21 16:31:00,,0805.4,4.99,0.00,22.1,20.9,00.0,30.9,23.9,12.4,0000.0,0002.91,0000.97,0000.42
2023-02-21 16:32:00,,0805.5,5.02,0.00,22.1,20.8,00.0,30.9,23.9,12.7,0000.0,0002.18,0000.91,0000.42
2023-02-21 16:33:00,,0805.6,5.01,0.00,22.1,20.8,00.0,30.9,23.8,12.6,0000.0,0002.14,0000.90,0000.42
2023-02-21 16:34:00,,0805.5,5.00,0.00,22.1,20.7,00.0,30.9,23.8,12.6,0000.0,0002.12,0000.90,0000.42
2023-02-21 16:35:00,,0805.5,5.00,0.00,22.1,20.6,00.0,30.9,23.8,12.7,0000.0,0001.99,0000.88,0000.41
2023-02-21 16:36:00,,0805.6,5.00,0.00,22.1,20.6,00.0,30.9,23.8,12.7,0000.0,0001.93,0000.87,0000.40
2023-02-21 16:37:00,,0805.8,5.00,0.00,22.1,20.6,00.0,30.9,23.8,12.8,0000.0,0001.77,0000.81,0000.39
2023-02-21 16:38:00,,0805.8,5.01,0.00,22.1,20.5,00.0,30.9,23.8,13.0,0000.0,0001.66,0000.79,0000.38
2023-02-21 16:39:00,,0805.8,5.00,0.00,22.0,20.5,00.0,30.9,23.8,12.8,0000.0,0001.56,0000.78,0000.39
2023-02-21 16:40:00,,0806.1,5.00,0.00,22.0,20.5,00.0,30.9,23.8,13.1,0000.0,0001.49,0000.78,0000.39
2023-02-21 16:41:00,,0806.2,4.99,0.00,22.0,20.5,00.0,30.9,23.8,13.3,0000.0,0001.39,0000.75,0000.38
2023-02-21 16:42:00,,0806.1,5.00,0.00,22.0,20.5,00.0,30.9,23.8,12.9,0000.0,0001.35,0000.74,0000.38
2023-02-21 16:43:00,,0806.1,5.00,0.00,22.0,20.6,00.0,30.9,23.8,12.7,0000.0,0001.36,0000.75,0000.38
2023-02-21 16:44:00,,0806.0,5.00,0.00,22.0,20.6,00.0,30.9,23.8,13.0,0000.0,0001.41,0000.77,0000.38
2023-02-21 16:45:00,,0806.0,5.00,0.00,22.0,20.6,00.0,30.9,23.8,12.9,0000.0,0001.37,0000.77,0000.39
2023-02-21 16:46:00,,0805.8,5.01,0.00,22.0,20.6,00.0,30.9,23.8,13.1,0000.0,0001.32,0000.74,0000.40
2023-02-21 16:47:00,,0806.0,5.01,0.00,22.0,20.6,00.0,30.9,23.8,13.0,0000.0,0001.43,0000.79,0000.41
2023-02-21 16:48:00,,0806.0,5.00,0.00,22.0,20.6,00.0,30.9,23.8,12.6,0000.0,0001.70,0000.87,0000.42
2023-02-21 16:49:00,,0805.8,5.00,0.00,22.0,20.6,00.0,30.9,23.8,12.5,0000.0,0001.80,0000.89,0000.43
2023-02-21 16:50:00,,0805.8,5.00,0.00,22.0,20.6,00.0,30.9,23.8,12.7,0000.0,0002.43,0000.90,0000.44
2023-02-21 16:51:00,,0805.7,5.00,0.00,22.0,20.6,00.0,30.9,23.8,13.0,0000.0,0002.76,0000.86,0000.44
2023-02-21 16:52:00,,0805.9,4.99,0.00,22.0,20.6,00.0,30.9,23.8,12.5,0000.0,0002.85,0000.90,0000.44
2023-02-21 16:53:00,,0806.0,4.99,0.00,22.0,20.6,00.0,30.9,23.8,12.6,0000.0,0002.98,0000.92,0000.44
2023-02-21 16:54:00,,0806.2,4.99,0.00,22.0,20.6,00.0,30.9,23.8,13.0,0000.0,0002.96,0000.90,0000.44
2023-02-21 16:55:00,,0806.0,4.99,0.00,22.0,20.6,00.0,30.9,23.8,13.3,0000.0,0002.91,0000.87,0000.43
2023-02-21 16:56:00,,0805.7,4.99,0.00,22.0,20.5,00.0,30.9,23.8,12.8,0000.0,0002.86,0000.85,0000.43
2023-02-21 16:57:00,,0805.9,5.01,0.00,22.0,20.5,00.0,30.9,23.8,12.7,0000.0,0003.03,0000.85,0000.42
2023-02-21 16:58:00,,0805.7,4.99,0.00,22.0,20.5,00.0,30.9,23.8,12.7,0000.0,0003.02,0000.82,0000.42
2023-02-21 16:59:00,,0805.7,5.00,0.00,22.0,20.5,00.0,30.9,23.8,12.4,0000.0,0002.84,0000.74,0000.41
